Location: Newark
(45.8667°N, 9.7333°E)
Time: 00:56:44
(UTC+00:00)

Vanguard 2 Rocket - Pass Details

Date: 04 February 2020
Orbit: 554 x 3327 km, 32.9° (Epoch: 21 February)

Event Time Altitude Azimuth Distance (km) Brightness Sun altitude
Rises 02:09:30 0° 232° (SW) 3,098 - -46.4°
Reaches altitude 10° 02:13:11 10° 204° (SSW) 1,934 - -45.9°
Maximum altitude 02:15:12 13° 175° (S) 1,659 - -45.6°
Drops below altitude 10° 02:17:07 10° 145° (SE) 1,822 - -45.3°
Sets 02:20:22 0° 116° (ESE) 2,761 - -44.8°
